This demonstration page uses our WeatherBlox Daily Observations layout. Learn more.

Hourly Observations for July 20, 2020

Temp ( °F °C ) Dew Point ( °F °C ) Humidity (%) Winds ( mph kmh ) Pressure ( in mb ) Visibility ( mi km ) Precip ( " mm )
12:15 am 00:15 Cloudy with Nearby Thunderstorms 74 23.5 64 17.7 70 70 SE 16 26 29.89 1012 10 16.0934 0 0
12:35 am 00:35 Mostly Cloudy with Nearby Thunderstorms 74 23.2 63 17 68 68 ESE 14 22 29.88 1012 10 16.0934 0 0
12:55 am 00:55 Cloudy with Nearby Thunderstorms 74 23.1 62 16.7 67 67 SE 8 13 29.89 1012 10 16.0934 0 0
1:15 am 01:15 Cloudy with Nearby Thunderstorms 71 21.9 64 17.6 77 77 SSW 16 26 29.94 1014 7 11.26538 0.03 0.762
1:35 am 01:35 Cloudy 69 20.7 65 18.6 88 88 S 10 17 29.92 1013 7 11.26538 0.13 3.302
1:55 am 01:55 Mostly Cloudy with Thunderstorms 70 21.1 64 17.6 81 81 SE 16 26 29.87 1011 10 16.0934 0.16 4.064
2:15 am 02:15 Cloudy 69 20.3 65 18.5 89 89 SE 18 30 29.82 1010 10 16.0934 0.01 0.254
2:35 am 02:35 Mostly Cloudy 69 20.3 65 18.1 87 87 ESE 10 17 29.81 1009 10 16.0934 0.01 0.254
2:55 am 02:55 Clear 69 20.7 64 17.8 84 84 SSW 8 13 29.81 1010 10 16.0934 0.01 0.254
3:15 am 03:15 Clear 69 20.5 64 18 86 86 WSW 12 19 29.83 1010 10 16.0934 0 0
3:35 am 03:35 Clear 68 20.1 65 18.1 88 88 NNW 9 15 29.92 1013 10 16.0934 0 0
3:55 am 03:55 Partly Cloudy 69 20.3 67 19.2 93 93 NNW 9 15 29.94 1014 10 16.0934 0 0
4:15 am 04:15 Partly Cloudy 68 20 66 18.7 92 92 N 8 13 29.94 1014 10 16.0934 0 0
4:35 am 04:35 Cloudy 68 20 65 18.6 92 92 NE 12 19 29.93 1013 10 16.0934 0 0
4:55 am 04:55 Cloudy with Thunderstorms 68 20 65 18.6 92 92 NNE 5 7 29.96 1014 10 16.0934 0 0
5:15 am 05:15 Cloudy with Light Thunderstorms 68 20 66 18.7 92 92 ENE 17 28 29.93 1013 7 11.26538 0.07 1.778
5:35 am 05:35 Mostly Cloudy with Thunderstorms 68 20 65 18.5 91 91 ENE 16 26 29.91 1013 10 16.0934 0.08 2.032
5:55 am 05:55 Clear with Thunderstorms 67 19.6 65 18.4 93 93 E 10 17 29.92 1013 10 16.0934 0.08 2.032
6:15 am 06:15 Mostly Cloudy with Nearby Thunderstorms 67 19.6 65 18.5 93 93 E 13 20 29.93 1014 10 16.0934 0 0
6:35 am 06:35 Cloudy 67 19.4 65 18.4 94 94 E 14 22 29.93 1014 10 16.0934 0 0
6:55 am 06:55 Mostly Cloudy with Nearby Thunderstorms 66 19 65 18.1 95 95 E 8 13 29.94 1014 10 16.0934 0 0
7:15 am 07:15 Partly Cloudy 66 19 65 18.1 95 95 ENE 8 13 29.93 1013 10 16.0934 0 0
7:35 am 07:35 Partly Cloudy with Light Rain 66 18.7 64 18 96 96 E 6 9 29.92 1013 10 16.0934 0 0
7:55 am 07:55 Sunny with Nearby Thunderstorms 66 18.7 65 18.1 96 96 E 9 15 29.92 1013 10 16.0934 0 0
8:15 am 08:15 Mostly Cloudy with Thunderstorms 66 18.8 65 18.2 96 96 E 8 13 29.93 1013 10 16.0934 0 0
8:35 am 08:35 Cloudy 66 19.1 65 18.5 96 96 E 6 9 29.92 1013 10 16.0934 0 0
8:55 am 08:55 Cloudy 67 19.3 65 18.6 96 96 E 6 9 29.92 1013 10 16.0934 0 0
9:15 am 09:15 Cloudy 68 19.8 66 19 95 95 E 8 13 29.92 1013 10 16.0934 0 0
9:35 am 09:35 Cloudy 68 20.2 66 19 93 93 E 9 15 29.92 1013 10 16.0934 0 0
9:55 am 09:55 Cloudy 69 20.7 66 19 90 90 E 7 11 29.91 1013 10 16.0934 0 0
10:15 am 10:15 Mostly Cloudy 71 21.6 67 19.4 87 87 E 7 11 29.91 1013 10 16.0934 0 0
10:35 am 10:35 Partly Cloudy 72 22.2 67 19.4 84 84 SE 6 9 29.89 1012 10 16.0934 0 0
10:55 am 10:55 Sunny 74 23.4 68 20 81 81 SE 8 13 29.9 1013 10 16.0934 0 0
11:15 am 11:15 Partly Cloudy 75 23.8 68 19.9 79 79 E 9 15 29.91 1013 10 16.0934 0 0
11:35 am 11:35 Partly Cloudy 75 23.7 67 19.7 78 78 ESE 7 11 29.89 1012 10 16.0934 0 0
11:55 am 11:55 Partly Cloudy 76 24.4 68 20 77 77 E 7 11 29.9 1013 10 16.0934 0 0
12:15 pm 12:15 Mostly Cloudy 77 25.1 68 20 73 73 ESE 8 13 29.89 1012 10 16.0934 0 0
12:35 pm 12:35 Mostly Cloudy 78 25.8 68 20 70 70 SSE 9 15 29.88 1012 10 16.0934 0 0
12:55 pm 12:55 Mostly Cloudy 79 26.2 68 20.1 69 69 SSE 8 13 29.87 1011 10 16.0934 0 0
1:15 pm 13:15 Cloudy 78 25.8 68 20 70 70 SE 8 13 29.86 1011 10 16.0934 0 0
1:35 pm 13:35 Mostly Cloudy 80 26.8 69 20.7 69 69 SE 10 17 29.85 1011 10 16.0934 0 0
1:55 pm 13:55 Cloudy 81 27 69 20.5 68 68 SE 6 9 29.85 1011 10 16.0934 0 0
2:15 pm 14:15 Cloudy 81 27.2 69 20.7 68 68 ESE 12 19 29.85 1011 10 16.0934 0 0
2:35 pm 14:35 Cloudy 80 26.6 70 21.1 72 72 E 12 19 29.84 1011 10 16.0934 0 0
2:55 pm 14:55 Cloudy 80 26.7 71 21.4 73 73 E 10 17 29.84 1011 10 16.0934 0 0
3:15 pm 15:15 Mostly Cloudy 82 27.6 71 21.7 70 70 ESE 13 20 29.84 1010 10 16.0934 0 0
3:35 pm 15:35 Mostly Cloudy 82 27.6 71 21.5 69 69 ESE 12 19 29.82 1010 10 16.0934 0 0
3:55 pm 15:55 Mostly Cloudy 82 28 71 21.7 69 69 E 12 19 29.81 1010 10 16.0934 0 0
4:15 pm 16:15 Mostly Cloudy 82 27.9 71 21.9 70 70 E 12 19 29.8 1009 10 16.0934 0 0
4:35 pm 16:35 Cloudy 83 28.4 71 21.8 67 67 ESE 12 19 29.8 1009 10 16.0934 0 0
4:55 pm 16:55 Cloudy 84 29 71 21.7 65 65 ESE 12 19 29.79 1009 10 16.0934 0 0
5:15 pm 17:15 Cloudy 85 29.6 70 21.3 61 61 ESE 13 20 29.77 1008 10 16.0934 0 0
5:35 pm 17:35 Mostly Cloudy 84 29.1 70 21 62 62 SE 13 20 29.77 1008 10 16.0934 0 0
5:55 pm 17:55 Mostly Cloudy 85 29.6 69 20.7 59 59 ESE 10 17 29.77 1008 10 16.0934 0 0
6:15 pm 18:15 Partly Cloudy 85 29.5 69 20.5 58 58 SE 9 15 29.76 1008 10 16.0934 0 0
6:35 pm 18:35 Partly Cloudy 84 28.9 68 20.2 59 59 SE 10 17 29.76 1008 10 16.0934 0 0
6:55 pm 18:55 Partly Cloudy 84 28.8 68 20.1 59 59 SE 8 13 29.78 1008 10 16.0934 0 0
7:15 pm 19:15 Mostly Cloudy 84 29 69 20.8 61 61 ESE 9 15 29.79 1009 10 16.0934 0 0
7:35 pm 19:35 Partly Cloudy 82 28 70 21.2 67 67 ESE 12 19 29.78 1009 10 16.0934 0 0
7:55 pm 19:55 Sunny 80 26.6 71 21.6 74 74 ESE 6 9 29.81 1010 10 16.0934 0 0
8:15 pm 20:15 Partly Cloudy 79 25.9 71 21.7 78 78 SE 8 13 29.81 1009 10 16.0934 0 0
8:35 pm 20:35 Partly Cloudy 78 25.3 71 21.8 81 81 SE 6 9 29.82 1010 10 16.0934 0 0
8:55 pm 20:55 Sunny 76 24.7 72 22 85 85 SE 7 11 29.83 1010 10 16.0934 0 0
9:15 pm 21:15 Partly Cloudy 76 24.6 71 21.8 84 84 SE 13 20 29.82 1010 10 16.0934 0 0
9:35 pm 21:35 Partly Cloudy with Nearby Thunderstorms 76 24.6 72 22.2 87 87 ESE 8 13 29.84 1010 10 16.0934 0 0
9:55 pm 21:55 Clear with Nearby Thunderstorms 76 24.2 72 22.2 89 89 E 5 7 29.86 1011 10 16.0934 0 0
10:15 pm 22:15 Mostly Cloudy with Light Thunderstorms 74 23.5 68 20.1 81 81 WNW 9 15 29.89 1012 10 16.0934 0 0
10:35 pm 22:35 Cloudy with Light Thunderstorms 68 20 63 17.3 85 85 N 9 15 29.93 1013 10 16.0934 0.02 0.508
10:55 pm 22:55 Mostly Clear with Heavy Thunderstorms 66 19 64 17.7 92 92 N 3 6 29.95 1014 5 8.0467 0.07 1.778
11:15 pm 23:15 Cloudy with Heavy Thunderstorms 65 18.2 64 17.5 96 96 NNE 3 6 29.94 1014 4 6.43736 0.22 5.588
11:35 pm 23:35 Cloudy with Thunderstorms 65 18.4 64 17.6 95 95 Calm 29.93 1014 5 8.0467 0.28 7.112
11:55 pm 23:55 Cloudy with Nearby Thunderstorms 66 18.9 64 17.8 93 93 S 5 7 29.94 1014 5 8.0467 0.32 8.128

Powered by AerisWeather